Погода в Баймаке

Узбекистан     41°04′02″N   71°19′50″E
темп.,
°C
ветер,
м/с
пор.,
м/с
влажн.,
%
обл.,
%
осадки,
мм/ч
давл.,
гПа
погр.,
м
27 февраля, сб
сб2723:00−3с343483 0.0 1032112
02:00−3с2233100 0.0 103037
05:00−3ссз1131100 0.0 103028
08:00−2с0028100 0.0 1030111
11:000ю1125100 0.0 1030706
14:00+2ю2124100 0.0 10301118
17:00+2вюв2225100 0.0 10321231
20:000с333792 0.0 103583
28 февраля, вс
вс2823:00−1с454254 0.0 1035119
02:00−1с353853 0.0 103387
05:00−1с233727 0.0 103135
08:00−1в01370 0.0 103052
11:00+3ююв22320 0.0 1025497
14:00+7ююв12280 0.0 1023783
17:00+7ю21280 0.0 1022708
20:00+4св11370 0.0 102523
1 марта, пн
пн123:00+3с11430 0.0 102422
02:00+2ююв014524 0.0 102322
05:00+1юз114762 0.0 102322
08:00+2в1143100 0.0 102326
11:00+7юв212895 0.0 1021427
14:00+11вюв122015 0.0 1020738
17:00+11в12198 0.0 1021719
20:00+7с11290 0.0 102422
2 марта, вт
вт223:00+6ссв22330 0.0 102422
02:00+5ссв113432 0.0 102422
05:00+5св113466 0.0 102422
08:00+6св1133100 0.0 102422
11:00+10ююв0125100 0.0 1022414
14:00+13юв1220100 0.0 1021875
17:00+12ю1122100 0.0 1021459
20:00+10ссз1129100 0.0 102323
3 марта, ср
ср323:00+10ссв2334100 0.0 102328
02:00+9ссв1246100 0.0 102226
05:00+8с2257100 0.0 102135
08:00+8ссз2361100 0.1 1021114
11:00+10с2249100 0.1 1020838
14:00+12ююв0237100 0.0 10181613
17:00+12зюз2334100 0.0 10181565
20:00+9с4562100 0.3 1020181